AFR17SW TFFF-SOCA

Flight info

Callsign AFR17SW
Flight time N/A
Altitude 23000
Route BORUS2R BORUS A555 BGI/N0449F350 UA555 TRAPP/N0448F370 UA555 BUXEX UA247 SILAT
Aircraft A320/M-SDE3FGHIRWY/LB1

Departure

Time 2026-04-29 19:04
Airport Martinique Aimé Césaire International Airport (TFFF)

Arrival

Time N/A
Airport Cayenne – Félix Eboué Airport (SOCA)
Time Latitude Longitude Altitude Speed Heading
2026-04-29 18:22 14.59471 -61.00029 13 ft 0 kts 23°
2026-04-29 18:52 14.59464 -61.00032 13 ft 4 kts 23°
2026-04-29 18:52 14.59439 -61.00043 15 ft 4 kts 23°
2026-04-29 18:52 14.59415 -61.00055 15 ft 4 kts 28°
2026-04-29 18:53 14.59393 -61.00070 12 ft 4 kts 52°
2026-04-29 18:53 14.59386 -61.00091 12 ft 4 kts 92°
2026-04-29 18:53 14.59391 -61.00117 12 ft 4 kts 116°
2026-04-29 18:53 14.59402 -61.00139 12 ft 1 kts 114°
2026-04-29 18:54 14.59402 -61.00140 12 ft 0 kts 114°
2026-04-29 18:56 14.59401 -61.00139 12 ft 1 kts 116°
2026-04-29 18:56 14.59390 -61.00113 12 ft 5 kts 112°
2026-04-29 18:57 14.59376 -61.00071 14 ft 7 kts 109°
2026-04-29 18:57 14.59339 -61.00038 12 ft 8 kts 167°
2026-04-29 18:57 14.59293 -61.00032 12 ft 6 kts 171°
2026-04-29 18:57 14.59259 -61.00027 12 ft 4 kts 172°
2026-04-29 18:58 14.59232 -61.00023 12 ft 3 kts 171°
2026-04-29 18:58 14.59212 -61.00020 12 ft 3 kts 172°
2026-04-29 18:58 14.59182 -61.00020 13 ft 8 kts 185°
2026-04-29 18:58 14.59149 -61.00068 10 ft 9 kts 259°
2026-04-29 18:59 14.59134 -61.00157 12 ft 16 kts 260°
2026-04-29 18:59 14.59115 -61.00263 10 ft 15 kts 260°
2026-04-29 18:59 14.59098 -61.00369 9 ft 14 kts 260°
2026-04-29 18:59 14.59081 -61.00467 9 ft 13 kts 259°
2026-04-29 19:00 14.59060 -61.00589 10 ft 22 kts 259°
2026-04-29 19:00 14.59028 -61.00772 12 ft 30 kts 259°
2026-04-29 19:00 14.58987 -61.01010 12 ft 37 kts 259°
2026-04-29 19:00 14.58949 -61.01230 13 ft 29 kts 259°
2026-04-29 19:01 14.58921 -61.01396 12 ft 20 kts 260°
2026-04-29 19:01 14.58898 -61.01533 11 ft 19 kts 259°
2026-04-29 19:01 14.58875 -61.01662 9 ft 17 kts 262°
2026-04-29 19:01 14.58884 -61.01748 10 ft 11 kts 300°
2026-04-29 19:02 14.58894 -61.01812 8 ft 9 kts 223°
2026-04-29 19:02 14.58859 -61.01813 8 ft 7 kts 154°
2026-04-29 19:02 14.58856 -61.01776 8 ft 0 kts 81°
2026-04-29 19:03 14.58864 -61.01722 9 ft 30 kts 80°
2026-04-29 19:03 14.58944 -61.01265 13 ft 96 kts 80°
2026-04-29 19:03 14.59091 -61.00409 12 ft 147 kts 79°
2026-04-29 19:03 14.59307 -60.99267 328 ft 164 kts 80°
2026-04-29 19:04 14.59522 -60.98105 1001 ft 164 kts 82°
2026-04-29 19:04 14.59727 -60.96946 1724 ft 164 kts 81°
2026-04-29 19:04 14.59931 -60.95730 2157 ft 182 kts 83°
2026-04-29 19:04 14.60154 -60.94362 2444 ft 204 kts 81°
2026-04-29 19:05 14.60402 -60.92847 2768 ft 228 kts 82°
2026-04-29 19:05 14.60682 -60.91147 3154 ft 250 kts 81°
2026-04-29 19:05 14.60817 -60.89334 3884 ft 255 kts 101°
2026-04-29 19:05 14.60036 -60.87695 4670 ft 261 kts 133°
2026-04-29 19:06 14.58618 -60.86487 5444 ft 267 kts 146°
2026-04-29 19:06 14.57012 -60.85479 6239 ft 272 kts 149°
2026-04-29 19:06 14.53723 -60.83473 7721 ft 279 kts 147°
2026-04-29 19:07 14.52092 -60.82383 8518 ft 279 kts 144°
2026-04-29 19:07 14.51544 -60.82003 8778 ft 280 kts 144°
2026-04-29 19:07 14.48866 -60.80060 9895 ft 288 kts 143°
2026-04-29 19:07 14.47218 -60.78824 10294 ft 302 kts 142°
2026-04-29 19:08 14.45464 -60.77495 10433 ft 324 kts 142°
2026-04-29 19:08 14.43622 -60.76097 10760 ft 337 kts 143°
2026-04-29 19:08 14.41716 -60.74649 11281 ft 342 kts 143°
2026-04-29 19:08 14.39786 -60.73185 11911 ft 345 kts 142°
2026-04-29 19:09 14.37842 -60.71715 12571 ft 347 kts 142°
2026-04-29 19:09 14.35906 -60.70252 13152 ft 351 kts 143°
2026-04-29 19:09 14.33922 -60.68751 13744 ft 354 kts 142°
2026-04-29 19:09 14.31932 -60.67245 14305 ft 356 kts 143°
2026-04-29 19:10 14.29914 -60.65719 14755 ft 362 kts 143°
2026-04-29 19:10 14.27875 -60.64178 15265 ft 364 kts 143°
2026-04-29 19:10 14.25819 -60.62627 15759 ft 368 kts 144°
2026-04-29 19:10 14.23766 -60.61079 16262 ft 370 kts 144°
2026-04-29 19:11 14.21683 -60.59507 16844 ft 371 kts 144°
2026-04-29 19:11 14.19589 -60.57929 17355 ft 374 kts 144°
2026-04-29 19:11 14.17473 -60.56336 17789 ft 378 kts 145°
2026-04-29 19:11 14.15339 -60.54729 18311 ft 380 kts 145°
2026-04-29 19:12 14.13225 -60.53136 18739 ft 382 kts 145°
2026-04-29 19:12 14.11067 -60.51509 19159 ft 385 kts 145°
2026-04-29 19:12 14.08893 -60.49870 19590 ft 388 kts 145°
2026-04-29 19:12 14.08154 -60.49313 19745 ft 388 kts 145°
2026-04-29 19:13 14.04534 -60.46520 20467 ft 394 kts 140°
2026-04-29 19:13 14.02574 -60.44573 20879 ft 397 kts 137°
2026-04-29 19:13 14.00601 -60.42559 21309 ft 400 kts 137°
2026-04-29 19:13 13.98617 -60.40537 21733 ft 402 kts 137°
2026-04-29 19:14 13.97291 -60.39190 22009 ft 404 kts 137°